[[{"header":{"parameterUnit":"m.s-1","parameterCategory":1,"la1":30.2991,"la2":30.254,"lo1":-89.0895,"lo2":-89.0444,"dy":0.0017,"dx":0.0017,"nx":28,"ny":28,"refTime":"2025-09-03T03:00:00:Z","depth":0,"parameterNumber":2,"parameterNumberName":"U-component_of_WINDS"},"data":[0,0,0,0,0,0,0,0,0,0,0,0,0,0,0,0,0,0,0,0,0,0,0,0,0,0,0,0,0,0,0,0,0,0,0,0,0,0,0,0,0,0,0,0,0,0,0,0,0,0,0,0,0,0,0,0,0,0,-1.4734,-1.4734,0,-1.4755,-1.4755,-1.4755,-1.4735,-1.4734,-1.4733,-1.4732,-1.4754,-1.4756,-1.4757,0,0,0,0,0,0,0,0,0,0,0,0,0,-1.468,-1.4681,-1.4734,-1.4735,-1.4735,-1.4755,-1.4755,-1.4755,-1.4735,-1.4734,-1.4733,-1.4732,-1.4754,-1.4756,-1.4757,0,0,0,0,0,0,0,0,0,0,0,0,0,-1.4702,-1.4682,-1.4734,-1.4727,-1.4727,-1.4754,-1.4755,-1.4755,-1.4735,-1.4734,-1.4733,-1.4731,-1.4753,-1.4755,-1.4757,-1.4794,0,0,-1.4763,-1.4764,0,0,0,0,0,0,0,0,-1.4701,-1.4704,-1.4728,-1.4728,-1.4727,-1.4741,-1.4744,-1.4768,-1.4735,-1.4732,-1.4732,-1.4731,-1.4751,-1.4753,-1.476,-1.4795,-1.4796,-1.4764,-1.4765,-1.4766,-1.4766,0,0,0,0,0,0,0,-1.47,-1.4704,-1.4742,-1.4728,-1.4728,-1.4723,-1.4725,-1.4748,-1.4748,-1.4732,-1.4731,-1.4733,-1.475,-1.4758,-1.476,-1.4796,-1.4764,-1.4765,-1.4767,-1.4767,-1.4864,-1.4865,0,0,0,0,0,0,-1.4699,-1.4702,-1.4742,-1.4743,-1.4711,-1.4725,-1.4727,-1.4738,-1.4748,-1.4748,-1.4734,-1.4732,-1.4755,-1.4758,-1.4761,-1.4805,-1.4766,-1.4768,-1.4769,-1.4862,-1.4864,-1.4866,0,0,0,0,0,0,-1.4698,-1.4702,-1.4741,-1.4722,-1.4727,-1.4728,-1.4739,-1.4739,-1.4746,-1.4749,-1.4749,-1.4741,-1.4754,-1.4758,-1.4786,-1.4805,-1.4768,-1.477,-1.4861,-1.4863,-1.4865,-1.4893,0,0,0,0,0,0,-1.4696,-1.4702,-1.4715,-1.4723,-1.4728,-1.4765,-1.474,-1.474,-1.4749,-1.4747,-1.4756,-1.4756,-1.4753,-1.4783,-1.4788,-1.4807,-1.4772,-1.4859,-1.4862,-1.4864,-1.489,-1.4895,-1.49,0,0,0,0,0,-1.4694,-1.4722,-1.4716,-1.4721,-1.4744,-1.4766,-1.4769,-1.4765,-1.4751,-1.4764,-1.4767,-1.4756,-1.4802,-1.4786,-1.4791,-1.4812,-1.4858,-1.4861,-1.4864,-1.4888,-1.4894,-1.49,0,0,0,0,0,0,-1.4718,-1.4723,-1.4716,-1.4747,-1.4757,-1.4763,-1.478,-1.4772,-1.4785,-1.4782,-1.4777,-1.4779,-1.4809,-1.4813,-1.4795,-1.4848,-1.4828,-1.4832,-1.4844,-1.485,-1.4855,-1.4854,-1.4774,0,0,0,0,0,-1.4726,-1.4743,-1.4747,-1.4775,-1.4779,-1.4779,-1.4788,-1.4784,-1.4794,-1.4797,-1.4802,-1.4812,-1.4829,-1.484,-1.4855,-1.4891,-1.4893,-1.4907,-1.4912,-1.4916,-1.492,-1.494,-1.4947,-1.4876,-1.4876,-1.4875,0,0,-1.4745,-1.475,-1.4761,-1.4779,-1.4786,-1.4804,-1.4782,-1.4802,-1.4816,-1.48,-1.4827,-1.4831,-1.4842,-1.4874,-1.4888,-1.4878,-1.494,-1.492,-1.4923,-1.4925,-1.4944,-1.4951,-1.4957,-1.4878,-1.4877,-1.4877,0,0,-1.4787,-1.4793,-1.4816,-1.4823,-1.4833,-1.4833,-1.4839,-1.4847,-1.4848,-1.4875,-1.4864,-1.4881,-1.491,-1.4918,-1.4926,-1.4974,-1.4964,-1.4979,-1.5005,-1.5024,-1.503,-1.5035,-1.5052,-1.5059,-1.4983,-1.4983,-1.4983,0,-1.4809,-1.4835,-1.4829,-1.485,-1.4859,-1.4846,-1.4871,-1.4878,-1.4893,-1.49,-1.4888,-1.4925,-1.4931,-1.4966,-1.4977,-1.4984,-1.4991,-1.4978,-1.5029,-1.5034,-1.5039,-1.5056,-1.5062,-1.4984,-1.4984,-1.4984,-1.4984,0,-1.4861,-1.488,-1.4898,-1.4912,-1.4923,-1.4946,-1.4945,-1.4957,-1.4952,-1.4953,-1.4982,-1.4989,-1.5006,-1.5014,-1.501,-1.5048,-1.5042,-1.503,-1.501,-1.5048,-1.5063,-1.5069,-1.4987,-1.4986,-1.4986,-1.4985,0,0,-1.4918,-1.493,-1.4937,-1.4944,-1.4954,-1.4969,-1.4992,-1.5008,-1.5019,-1.503,-1.505,-1.5075,-1.5064,-1.5074,-1.507,-1.5088,-1.5125,-1.5074,-1.5074,-1.5083,-1.5169,-1.5178,-1.5185,-1.512,-1.5121,-1.5122,-1.5169,0,-1.4962,-1.5,-1.4996,-1.5033,-1.5051,-1.5039,-1.5059,-1.5068,-1.507,-1.5086,-1.5089,-1.5107,-1.5092,-1.5097,-1.5114,-1.5117,-1.5143,-1.5114,-1.5138,-1.5139,-1.5136,-1.5193,-1.5203,-1.5246,-1.5174,-1.5176,-1.5176,0,-1.5017,-1.503,-1.5068,-1.5077,-1.5084,-1.5102,-1.5118,-1.5133,-1.5144,-1.5144,-1.5155,-1.5149,-1.5173,-1.5152,-1.5185,-1.5166,-1.5176,-1.5179,-1.5181,-1.5183,-1.516,-1.5197,-1.526,-1.5267,-1.5186,-1.5185,-1.5184,0,-1.5055,-1.5082,-1.5109,-1.5115,-1.5126,-1.5139,-1.5144,-1.5154,-1.5164,-1.5178,-1.5185,-1.5202,-1.5211,-1.5225,-1.5224,-1.5209,-1.5258,-1.5237,-1.526,-1.526,-1.527,-1.527,-1.5336,-1.5277,-1.5277,-1.5276,-1.5276,0,-1.5104,-1.5128,-1.5126,-1.5143,-1.517,-1.5166,-1.5193,-1.5197,-1.5206,-1.5224,-1.5215,-1.5232,-1.523,-1.5247,-1.5247,-1.5275,-1.5279,-1.5281,-1.528,-1.5282,-1.5281,-1.5288,-1.5285,-1.5278,-1.5278,-1.5277,-1.5277,0,-1.5151,-1.5151,-1.5179,-1.5187,-1.519,-1.521,-1.5217,-1.5233,-1.5235,-1.5258,-1.5263,-1.5266,-1.5286,-1.5287,-1.531,-1.531,-1.5344,-1.534,-1.534,-1.534,-1.5362,-1.536,-1.5435,-1.5445,-1.5379,-1.538,-1.538,0,-1.5182,-1.5201,-1.5211,-1.5222,-1.5228,-1.5246,-1.5256,-1.5253,-1.5265,-1.5279,-1.5294,-1.5313,-1.5329,-1.5362,-1.5367,-1.5385,-1.5381,-1.5406,-1.5384,-1.5385,-1.5382,-1.5381,-1.5383,-1.5411,-1.5411,-1.5412,-1.5412,0,-1.5238,-1.5237,-1.5252,-1.5268,-1.5281,-1.5294,-1.5305,-1.5315,-1.5314,-1.5328,-1.5348,-1.536,-1.5384,-1.5403,-1.5421,-1.5427,-1.542,-1.5419,-1.5426,-1.5427,-1.5427,-1.5428,-1.5352,-1.5418,-1.5417,-1.5417,-1.5417,-1.5416,-1.5278,-1.5294,-1.5304,-1.5322,-1.533,-1.5341,-1.5357,-1.5361,-1.5377,-1.5396,-1.5394,-1.5417,-1.5428,-1.5451,-1.5459,-1.5478,-1.5469,-1.5478,-1.5481,-1.5483,-1.5486,-1.5424,-1.5481,-1.5481,-1.5481,-1.5481,-1.5481,0,-1.5334,-1.534,-1.5356,-1.5372,-1.5387,-1.5378,-1.5391,-1.5403,-1.5423,-1.5434,-1.545,-1.5474,-1.5493,-1.55,-1.5519,-1.5532,-1.553,-1.5537,-1.5536,-1.5538,-1.5492,-1.5485,-1.5539,-1.5539,-1.5539,-1.5539,-1.5539,-1.5539,-1.5364,-1.5391,-1.5392,-1.5423,-1.5429,-1.545,-1.5459,-1.5469,-1.5478,-1.5505,-1.5521,-1.5525,-1.5534,-1.5554,-1.5572,-1.5573,-1.5581,-1.559,-1.5591,-1.5547,-1.5541,-1.5536,-1.5529,-1.5592,-1.5592,-1.5636,-1.5636,-1.5636]},{"header":{"parameterUnit":"m.s-1","parameterCategory":1,"la1":30.2991,"la2":30.254,"lo1":-89.0895,"lo2":-89.0444,"dy":0.0017,"dx":0.0017,"nx":28,"ny":28,"refTime":"2025-09-03T03:00:00:Z","depth":0,"parameterNumber":3,"parameterNumberName":"V-component_of_WINDS"},"data":[0,0,0,0,0,0,0,0,0,0,0,0,0,0,0,0,0,0,0,0,0,0,0,0,0,0,0,0,0,0,0,0,0,0,0,0,0,0,0,0,0,0,0,0,0,0,0,0,0,0,0,0,0,0,0,0,0,0,3.539,3.5389,0,3.5353,3.5352,3.5352,3.5324,3.5324,3.5324,3.5324,3.5282,3.5282,3.5281,0,0,0,0,0,0,0,0,0,0,0,0,0,3.5433,3.5433,3.539,3.5389,3.5389,3.5353,3.5352,3.5352,3.5324,3.5324,3.5324,3.5323,3.5283,3.5282,3.5281,0,0,0,0,0,0,0,0,0,0,0,0,0,3.5407,3.5433,3.539,3.5371,3.5369,3.5353,3.5352,3.5351,3.5324,3.5324,3.5324,3.5323,3.5283,3.5282,3.528,3.5279,0,0,3.5276,3.5276,0,0,0,0,0,0,0,0,3.5409,3.5406,3.5374,3.5372,3.537,3.5343,3.5352,3.5327,3.5324,3.5341,3.5324,3.5323,3.5303,3.53,3.5293,3.5277,3.5276,3.5276,3.5276,3.5275,3.5275,0,0,0,0,0,0,0,3.541,3.5407,3.5375,3.5374,3.5371,3.5363,3.5359,3.5348,3.5324,3.534,3.5338,3.5334,3.5301,3.5295,3.5292,3.5275,3.5276,3.5275,3.5274,3.5274,3.5255,3.5256,0,0,0,0,0,0,3.5416,3.5409,3.5376,3.5374,3.5389,3.5363,3.5358,3.5352,3.5324,3.532,3.5334,3.5333,3.5297,3.5294,3.5291,3.5287,3.5275,3.5274,3.5273,3.5255,3.5255,3.5256,0,0,0,0,0,0,3.5417,3.5413,3.5377,3.5391,3.5386,3.5362,3.5355,3.5351,3.5345,3.532,3.5315,3.5332,3.5297,3.5292,3.5282,3.5285,3.5273,3.5272,3.5255,3.5255,3.5256,3.528,0,0,0,0,0,0,3.5418,3.5414,3.5414,3.5391,3.5385,3.5371,3.5356,3.5351,3.5343,3.534,3.5317,3.5312,3.5296,3.5285,3.5281,3.5283,3.5271,3.5254,3.5255,3.5255,3.5278,3.5281,3.5283,0,0,0,0,0,3.542,3.5421,3.5414,3.541,3.5385,3.5371,3.5368,3.535,3.5343,3.5342,3.5327,3.5313,3.5286,3.5284,3.528,3.5281,3.5254,3.5255,3.5255,3.5277,3.528,3.5283,0,0,0,0,0,0,3.5444,3.5418,3.5409,3.5404,3.539,3.5367,3.5365,3.5354,3.534,3.5339,3.5316,3.5311,3.5303,3.5291,3.529,3.5278,3.5268,3.5268,3.5286,3.5289,3.5291,3.5293,3.527,0,0,0,0,0,3.5449,3.5441,3.5418,3.5416,3.5409,3.5389,3.5382,3.537,3.5354,3.5348,3.5331,3.5315,3.5303,3.5295,3.5283,3.5277,3.5271,3.5276,3.5278,3.528,3.528,3.5275,3.5277,3.5258,3.5258,3.5258,0,0,3.5458,3.5443,3.5439,3.542,3.5408,3.5399,3.5384,3.5375,3.5368,3.5346,3.5335,3.5323,3.5304,3.5296,3.5291,3.5285,3.5284,3.5281,3.5283,3.5281,3.5276,3.5278,3.5279,3.5258,3.5258,3.5258,0,0,3.5471,3.546,3.5456,3.5444,3.5426,3.5412,3.5412,3.539,3.5381,3.5371,3.5353,3.5344,3.5324,3.5311,3.5302,3.531,3.5296,3.5306,3.5317,3.5313,3.5314,3.5315,3.5317,3.5318,3.5306,3.5306,3.5306,0,3.5485,3.5472,3.5455,3.5447,3.5439,3.542,3.5415,3.5404,3.5383,3.5377,3.5371,3.5345,3.5331,3.5319,3.5321,3.5314,3.5312,3.5308,3.5316,3.5317,3.5317,3.5319,3.532,3.5308,3.5308,3.5307,3.5307,0,3.5489,3.5481,3.548,3.5461,3.5452,3.5446,3.5427,3.542,3.5409,3.5395,3.5384,3.5367,3.535,3.5346,3.5335,3.5333,3.533,3.532,3.5309,3.5321,3.5322,3.5322,3.5309,3.5309,3.5309,3.5308,0,0,3.5515,3.5487,3.5487,3.5478,3.5457,3.545,3.5442,3.5427,3.5421,3.5407,3.54,3.5383,3.5374,3.5364,3.535,3.5347,3.5353,3.5337,3.5337,3.534,3.5349,3.5355,3.5356,3.5345,3.5345,3.5345,3.535,0,3.5524,3.5511,3.5495,3.5487,3.5479,3.546,3.5454,3.544,3.5427,3.5417,3.5402,3.5391,3.5381,3.5374,3.537,3.5353,3.5354,3.5353,3.5336,3.5336,3.5341,3.5357,3.5364,3.537,3.535,3.535,3.535,0,3.5532,3.552,3.5512,3.5492,3.5487,3.5482,3.5466,3.5457,3.5441,3.5432,3.542,3.5406,3.5396,3.5388,3.5373,3.5373,3.5365,3.5356,3.5356,3.5352,3.5343,3.5353,3.5371,3.5372,3.5351,3.5351,3.5351,0,3.5551,3.5533,3.5525,3.5518,3.5494,3.5491,3.5481,3.5464,3.5455,3.5442,3.5436,3.5421,3.5412,3.54,3.5382,3.5378,3.5369,3.5359,3.536,3.5361,3.5358,3.5358,3.5374,3.5355,3.5355,3.5355,3.5355,0,3.5562,3.5557,3.5533,3.5528,3.5522,3.5504,3.5498,3.5486,3.5471,3.5462,3.5446,3.5438,3.5415,3.5404,3.539,3.5379,3.5376,3.5367,3.5363,3.5368,3.5369,3.5362,3.536,3.5355,3.5355,3.5355,3.5355,0,3.5581,3.5565,3.5555,3.5534,3.5529,3.5525,3.5506,3.55,3.5487,3.5477,3.5473,3.5452,3.5438,3.5419,3.5399,3.539,3.5381,3.5375,3.5387,3.5384,3.5386,3.5386,3.5397,3.5397,3.5379,3.5379,3.538,0,3.5588,3.5584,3.5563,3.5557,3.5548,3.5538,3.553,3.5511,3.5503,3.5484,3.548,3.5465,3.5453,3.5432,3.5413,3.5398,3.5391,3.5396,3.5389,3.5394,3.539,3.539,3.5389,3.5398,3.5398,3.5398,3.5398,0,3.5603,3.5595,3.5585,3.5571,3.5562,3.5551,3.5538,3.5533,3.5512,3.5504,3.549,3.5481,3.5461,3.5446,3.5429,3.5417,3.5403,3.5401,3.54,3.5405,3.5411,3.5407,3.5391,3.5401,3.54,3.54,3.54,3.54,3.5616,3.5611,3.5596,3.5584,3.5573,3.5562,3.5555,3.5541,3.553,3.5513,3.5503,3.549,3.5473,3.5448,3.5437,3.5425,3.542,3.5419,3.5419,3.5418,3.542,3.5414,3.5422,3.5422,3.5422,3.5422,3.5422,0,3.5628,3.5618,3.5608,3.5591,3.5582,3.5572,3.5557,3.555,3.5539,3.5525,3.5513,3.5497,3.5483,3.5464,3.5448,3.5442,3.5436,3.5439,3.5438,3.5435,3.5426,3.5428,3.5444,3.5444,3.5444,3.5444,3.5444,3.5444,3.5634,3.5625,3.5616,3.5602,3.559,3.5578,3.5571,3.556,3.5548,3.5532,3.552,3.5509,3.5492,3.5475,3.5461,3.5456,3.545,3.5455,3.5447,3.5438,3.5436,3.5434,3.5436,3.5454,3.5454,3.5458,3.5458,3.5458]}]]